contact:dominique.lefevre@mio.osupytheas.fr, maurice.libes@osupytheas.fr, didier.mallarino@osupytheas.fr
Project:EMSO http://www.emso-fr.org/EMSO-France
Depth: 2436.0 m
Title:EMSO Ligure Ouest : Data MII capteur AQUADOPP
Date,Latitude,Longitude,X_East,Y_North,Z_Up,Amplitude_X,Amplitude_Y,Amplitude_Z,Batterie,SoundSpeed,Heading,Pitch,Roll,Pressure,TIS,Speed,Direction
, degrees North, degrees East, m.s-1, m.s-1,m.s-1, 1, 1, 1, Volt, m.s-1, degree, degree, degree, dbar, degree_C, m.s-1, degree
2021-01-26T00:04:03,42.805,6.029,-0.059,0.019,0.031,104.0,110.0,101.0,13.4,1505.2,327.9,-0.7,1.8,2470.393,13.3,0.061,287.8
2021-01-26T00:07:03,42.805,6.029,-0.076,0.012,-0.001,103.0,109.0,101.0,13.3,1505.3,325.8,-0.7,1.8,2470.389,13.31,0.076,279.0
2021-01-26T00:10:03,42.805,6.029,-0.055,0.022,0.0,104.0,108.0,101.0,13.4,1505.3,325.1,-0.7,1.8,2470.411,13.32,0.059,291.8
2021-01-26T00:13:03,42.805,6.029,-0.056,0.008,-0.005,105.0,108.0,101.0,13.3,1505.3,325.2,-0.7,1.9,2470.421,13.32,0.056,278.1
2021-01-26T00:16:03,42.805,6.029,-0.05,0.002,0.014,104.0,109.0,102.0,13.4,1505.3,327.6,-0.7,1.8,2470.358,13.32,0.05,272.3
2021-01-26T00:19:03,42.805,6.029,-0.059,0.033,-0.013,106.0,108.0,101.0,13.4,1505.3,327.8,-0.7,1.8,2470.411,13.32,0.067,299.2
2021-01-26T00:22:03,42.805,6.029,-0.075,0.013,0.012,105.0,110.0,102.0,13.4,1505.3,323.8,-0.7,1.8,2470.371,13.32,0.076,279.8
2021-01-26T00:25:03,42.805,6.029,-0.055,0.003,0.0,104.0,109.0,101.0,13.3,1505.3,323.1,-0.7,1.8,2470.36,13.32,0.055,273.1
2021-01-26T00:28:03,42.805,6.029,-0.066,0.018,0.021,104.0,110.0,100.0,13.4,1505.3,324.4,-0.7,1.9,2470.36,13.32,0.068,285.3
2021-01-26T00:31:03,42.805,6.029,-0.047,0.021,0.038,104.0,110.0,102.0,13.3,1505.3,326.0,-0.7,1.8,2470.365,13.32,0.051,294.1
2021-01-26T00:34:03,42.805,6.029,-0.058,0.012,0.019,104.0,108.0,102.0,13.4,1505.3,326.4,-0.7,1.8,2470.356,13.32,0.059,281.7
2021-01-26T00:37:03,42.805,6.029,-0.075,0.014,-0.007,104.0,110.0,102.0,13.4,1505.3,327.3,-0.7,1.8,2470.351,13.32,0.076,280.6
2021-01-26T00:40:03,42.805,6.029,-0.064,0.002,-0.021,103.0,109.0,102.0,13.4,1505.3,327.9,-0.7,1.8,2470.39,13.32,0.064,271.8
2021-01-26T00:43:03,42.805,6.029,-0.06,0.017,-0.007,105.0,107.0,103.0,13.4,1505.3,327.1,-0.7,1.8,2470.392,13.32,0.062,285.8
2021-01-26T00:46:03,42.805,6.029,-0.065,-0.001,-0.016,104.0,107.0,102.0,13.4,1505.3,324.5,-0.7,1.8,2470.373,13.32,0.065,269.1
2021-01-26T00:49:03,42.805,6.029,-0.054,0.016,-0.02,105.0,107.0,102.0,13.4,1505.3,324.2,-0.7,1.8,2470.398,13.32,0.056,286.5
2021-01-26T00:52:03,42.805,6.029,-0.079,0.009,-0.021,105.0,110.0,102.0,13.4,1505.3,323.1,-0.7,1.8,2470.35,13.32,0.079,276.5
2021-01-26T00:55:03,42.805,6.029,-0.046,0.002,-0.015,104.0,108.0,102.0,13.4,1505.3,327.5,-0.7,1.8,2470.361,13.32,0.046,272.5
2021-01-26T00:58:03,42.805,6.029,-0.034,0.019,0.032,104.0,109.0,102.0,13.4,1505.3,323.4,-0.7,1.8,2470.36,13.32,0.038,299.2
2021-01-26T01:04:03,42.805,6.029,-0.056,-0.002,0.022,105.0,110.0,104.0,13.3,1505.2,326.3,-0.8,1.8,2470.426,13.3,0.056,268.0
2021-01-26T01:07:03,42.805,6.029,-0.05,0.04,0.015,104.0,109.0,102.0,13.4,1505.3,324.2,-0.7,1.8,2470.424,13.31,0.064,308.7
2021-01-26T01:10:03,42.805,6.029,-0.09,0.015,-0.02,104.0,109.0,101.0,13.4,1505.3,326.8,-0.7,1.8,2470.37,13.32,0.091,279.5
2021-01-26T01:13:03,42.805,6.029,-0.037,0.014,0.011,104.0,110.0,101.0,13.4,1505.3,326.3,-0.7,1.8,2470.4,13.32,0.039,290.7
2021-01-26T01:16:03,42.805,6.029,-0.031,0.018,0.019,105.0,108.0,101.0,13.4,1505.3,328.0,-0.7,1.8,2470.366,13.32,0.035,300.1
2021-01-26T01:19:03,42.805,6.029,-0.061,0.002,0.009,105.0,110.0,101.0,13.3,1505.3,322.5,-0.7,1.8,2470.44,13.32,0.061,271.9
2021-01-26T01:22:03,42.805,6.029,-0.071,0.004,0.025,104.0,110.0,102.0,13.4,1505.3,323.3,-0.7,1.8,2470.388,13.32,0.071,273.2
2021-01-26T01:25:03,42.805,6.029,-0.07,0.029,-0.009,104.0,111.0,101.0,13.4,1505.3,325.9,-0.7,1.8,2470.408,13.32,0.075,292.5
2021-01-26T01:28:03,42.805,6.029,-0.06,0.017,0.012,104.0,109.0,101.0,13.4,1505.3,324.0,-0.7,1.8,2470.427,13.32,0.062,285.8
2021-01-26T01:31:03,42.805,6.029,-0.049,0.004,-0.001,106.0,112.0,101.0,13.4,1505.3,324.2,-0.8,1.8,2470.39,13.32,0.049,274.7
2021-01-26T01:34:03,42.805,6.029,-0.039,0.023,0.033,103.0,111.0,102.0,13.4,1505.3,325.4,-0.7,1.8,2470.419,13.32,0.045,300.5
2021-01-26T01:37:03,42.805,6.029,-0.064,0.0,0.014,104.0,110.0,103.0,13.4,1505.3,327.0,-0.7,1.8,2470.403,13.32,0.063,270.0
2021-01-26T01:40:03,42.805,6.029,-0.054,0.01,-0.058,105.0,110.0,102.0,13.4,1505.3,323.6,-0.7,1.8,2470.378,13.32,0.054,280.5
2021-01-26T01:43:03,42.805,6.029,-0.096,0.009,-0.051,104.0,110.0,102.0,13.4,1505.3,323.6,-0.7,1.8,2470.376,13.32,0.096,275.4
2021-01-26T01:46:03,42.805,6.029,-0.058,0.017,-0.013,105.0,110.0,102.0,13.3,1505.3,325.8,-0.7,1.8,2470.417,13.32,0.06,286.3
2021-01-26T01:49:03,42.805,6.029,-0.047,-0.008,-0.009,104.0,110.0,102.0,13.3,1505.3,324.5,-0.8,1.8,2470.423,13.32,0.047,260.3
2021-01-26T01:52:03,42.805,6.029,-0.045,0.017,0.0,105.0,112.0,100.0,13.4,1505.3,324.2,-0.7,1.8,2470.421,13.32,0.048,290.7
2021-01-26T01:55:03,42.805,6.029,-0.04,0.015,-0.042,105.0,109.0,101.0,13.4,1505.3,325.1,-0.7,1.8,2470.372,13.32,0.042,290.6
2021-01-26T01:58:03,42.805,6.029,-0.066,0.015,0.003,104.0,110.0,103.0,13.3,1505.3,323.6,-0.8,1.8,2470.411,13.32,0.067,282.8
2021-01-26T02:04:03,42.805,6.029,-0.042,0.019,-0.028,103.0,110.0,102.0,13.4,1505.2,322.6,-0.7,1.8,2470.487,13.3,0.046,294.3
2021-01-26T02:07:03,42.805,6.029,-0.077,0.02,0.008,104.0,111.0,103.0,13.4,1505.3,325.9,-0.7,1.8,2470.434,13.31,0.079,284.6
2021-01-26T02:10:03,42.805,6.029,-0.053,0.011,0.002,104.0,110.0,102.0,13.3,1505.3,327.7,-0.7,1.9,2470.475,13.32,0.054,281.7
2021-01-26T02:13:03,42.805,6.029,-0.059,0.017,-0.017,104.0,112.0,102.0,13.4,1505.3,324.2,-0.7,1.8,2470.438,13.32,0.061,286.1
2021-01-26T02:16:03,42.805,6.029,-0.081,-0.002,-0.022,105.0,110.0,102.0,13.4,1505.3,325.3,-0.7,1.8,2470.434,13.32,0.081,268.6
2021-01-26T02:19:03,42.805,6.029,-0.057,0.02,0.0,104.0,111.0,101.0,13.3,1505.3,325.0,-0.7,1.8,2470.443,13.32,0.06,289.3
2021-01-26T02:22:03,42.805,6.029,-0.04,0.025,0.021,104.0,109.0,102.0,13.4,1505.3,324.7,-0.7,1.9,2470.455,13.32,0.047,302.0
2021-01-26T02:25:03,42.805,6.029,-0.067,0.014,0.005,105.0,110.0,100.0,13.3,1505.3,326.3,-0.7,1.8,2470.454,13.32,0.068,281.8
2021-01-26T02:28:03,42.805,6.029,-0.061,0.012,0.0,103.0,109.0,101.0,13.4,1505.3,327.6,-0.7,1.8,2470.472,13.32,0.062,281.1
2021-01-26T02:31:03,42.805,6.029,-0.082,0.026,0.014,103.0,113.0,101.0,13.3,1505.3,326.7,-0.7,1.9,2470.469,13.32,0.086,287.6
2021-01-26T02:34:03,42.805,6.029,-0.073,0.034,0.0,105.0,109.0,101.0,13.4,1505.3,327.2,-0.7,1.8,2470.469,13.32,0.08,295.0
2021-01-26T02:37:03,42.805,6.029,-0.073,0.033,-0.008,104.0,112.0,101.0,13.3,1505.3,326.8,-0.7,1.8,2470.469,13.32,0.08,294.3
2021-01-26T02:40:03,42.805,6.029,-0.051,0.022,0.021,104.0,112.0,101.0,13.4,1505.3,328.2,-0.7,1.8,2470.463,13.32,0.055,293.3
2021-01-26T02:43:03,42.805,6.029,-0.039,-0.007,-0.003,105.0,111.0,101.0,13.4,1505.3,328.1,-0.7,1.8,2470.449,13.32,0.039,259.8
2021-01-26T02:46:03,42.805,6.029,-0.044,0.008,0.003,105.0,112.0,102.0,13.3,1505.3,326.6,-0.7,1.8,2470.433,13.32,0.044,280.3
2021-01-26T02:49:03,42.805,6.029,-0.077,0.017,-0.012,104.0,110.0,102.0,13.4,1505.3,327.5,-0.7,1.8,2470.445,13.32,0.078,282.4
2021-01-26T02:52:03,42.805,6.029,-0.064,-0.001,-0.017,103.0,111.0,102.0,13.3,1505.3,324.5,-0.7,1.8,2470.48,13.33,0.064,269.1
2021-01-26T02:55:03,42.805,6.029,-0.035,0.015,0.001,104.0,110.0,102.0,13.4,1505.3,327.5,-0.7,1.8,2470.443,13.32,0.038,293.2
2021-01-26T02:58:03,42.805,6.029,-0.074,0.029,0.001,104.0,110.0,102.0,13.4,1505.3,324.3,-0.7,1.8,2470.43,13.32,0.079,291.4
2021-01-26T03:04:03,42.805,6.029,-0.07,0.002,-0.011,105.0,109.0,102.0,13.3,1505.2,327.7,-0.7,1.8,2470.47,13.3,0.07,271.6
2021-01-26T03:07:03,42.805,6.029,-0.061,0.005,0.005,104.0,112.0,101.0,13.4,1505.3,327.7,-0.7,1.8,2470.477,13.31,0.061,274.7
2021-01-26T03:10:03,42.805,6.029,-0.062,0.008,-0.005,104.0,110.0,101.0,13.4,1505.3,322.9,-0.7,1.8,2470.499,13.32,0.062,277.3
2021-01-26T03:13:03,42.805,6.029,-0.071,0.009,0.018,103.0,110.0,101.0,13.4,1505.3,326.3,-0.7,1.9,2470.485,13.32,0.071,277.2
2021-01-26T03:16:03,42.805,6.029,-0.053,0.016,-0.018,105.0,110.0,102.0,13.4,1505.3,324.9,-0.7,1.8,2470.481,13.32,0.055,286.8
2021-01-26T03:19:03,42.805,6.029,-0.05,0.013,-0.012,105.0,110.0,101.0,13.3,1505.3,324.5,-0.7,1.8,2470.506,13.32,0.051,284.6
2021-01-26T03:22:03,42.805,6.029,-0.041,0.004,0.02,105.0,110.0,102.0,13.4,1505.3,324.4,-0.7,1.8,2470.438,13.32,0.041,275.6
2021-01-26T03:25:03,42.805,6.029,-0.066,0.005,-0.032,105.0,109.0,101.0,13.4,1505.3,323.2,-0.7,1.8,2470.491,13.32,0.066,274.3
2021-01-26T03:28:03,42.805,6.029,-0.062,-0.004,0.013,103.0,110.0,100.0,13.3,1505.3,327.9,-0.7,1.8,2470.489,13.32,0.062,266.3
2021-01-26T03:31:03,42.805,6.029,-0.056,0.009,0.009,104.0,110.0,102.0,13.4,1505.3,326.4,-0.7,1.8,2470.5,13.32,0.056,279.1
2021-01-26T03:34:03,42.805,6.029,-0.062,0.005,-0.032,103.0,109.0,101.0,13.4,1505.3,325.1,-0.7,1.8,2470.522,13.33,0.062,274.6
2021-01-26T03:37:03,42.805,6.029,-0.061,0.023,-0.004,102.0,109.0,101.0,13.4,1505.3,324.3,-0.7,1.8,2470.466,13.33,0.065,290.7
2021-01-26T03:40:03,42.805,6.029,-0.067,0.016,0.01,104.0,109.0,102.0,13.4,1505.3,324.7,-0.7,1.8,2470.518,13.32,0.068,283.4
2021-01-26T03:43:03,42.805,6.029,-0.061,0.016,-0.016,103.0,110.0,101.0,13.3,1505.3,328.7,-0.7,1.8,2470.47,13.32,0.063,284.7
2021-01-26T03:46:03,42.805,6.029,-0.081,0.016,-0.003,104.0,109.0,102.0,13.4,1505.3,327.1,-0.7,1.8,2470.472,13.32,0.082,281.2
2021-01-26T03:49:03,42.805,6.029,-0.06,-0.006,0.017,105.0,108.0,102.0,13.4,1505.3,322.7,-0.7,1.8,2470.481,13.32,0.06,264.3
2021-01-26T03:52:03,42.805,6.029,-0.077,0.021,-0.054,104.0,110.0,101.0,13.4,1505.3,325.0,-0.7,1.8,2470.51,13.32,0.079,285.3
2021-01-26T03:55:03,42.805,6.029,-0.046,0.01,-0.021,104.0,110.0,102.0,13.4,1505.3,327.2,-0.7,1.8,2470.533,13.32,0.047,282.3
2021-01-26T03:58:03,42.805,6.029,-0.041,0.008,0.018,104.0,108.0,101.0,13.4,1505.3,326.0,-0.7,1.8,2470.479,13.32,0.041,281.0
2021-01-26T04:04:03,42.805,6.029,-0.05,-0.01,-0.005,104.0,110.0,101.0,13.4,1505.3,326.1,-0.8,1.8,2470.533,13.31,0.05,258.7
2021-01-26T04:07:03,42.805,6.029,-0.072,0.005,-0.008,103.0,109.0,101.0,13.4,1505.3,326.5,-0.7,1.8,2470.56,13.31,0.072,274.0
2021-01-26T04:10:03,42.805,6.029,-0.047,0.011,0.03,103.0,108.0,101.0,13.3,1505.3,326.1,-0.7,1.8,2470.487,13.32,0.048,283.2
2021-01-26T04:13:03,42.805,6.029,-0.053,0.036,-0.002,104.0,109.0,101.0,13.4,1505.3,327.0,-0.7,1.9,2470.56,13.32,0.064,304.2
2021-01-26T04:16:03,42.805,6.029,-0.056,0.0,0.012,103.0,109.0,101.0,13.4,1505.3,325.7,-0.7,1.8,2470.549,13.32,0.056,270.0
2021-01-26T04:19:03,42.805,6.029,-0.041,0.037,0.034,102.0,107.0,103.0,13.4,1505.3,326.4,-0.7,1.8,2470.508,13.32,0.055,312.1
2021-01-26T04:22:03,42.805,6.029,-0.054,0.017,0.003,104.0,110.0,102.0,13.4,1505.3,325.9,-0.7,1.8,2470.513,13.33,0.056,287.5
2021-01-26T04:25:03,42.805,6.029,-0.074,0.015,-0.019,103.0,109.0,101.0,13.3,1505.3,326.8,-0.7,1.8,2470.497,13.33,0.075,281.5
2021-01-26T04:28:03,42.805,6.029,-0.047,0.008,0.017,104.0,110.0,101.0,13.4,1505.3,325.8,-0.7,1.9,2470.526,13.32,0.047,279.7
2021-01-26T04:31:03,42.805,6.029,-0.027,0.019,0.041,104.0,109.0,102.0,13.4,1505.3,326.8,-0.7,1.8,2470.545,13.32,0.033,305.1
2021-01-26T04:34:03,42.805,6.029,-0.052,0.0,0.002,106.0,110.0,100.0,13.4,1505.3,326.0,-0.7,1.8,2470.586,13.32,0.052,270.0
2021-01-26T04:37:03,42.805,6.029,-0.048,-0.005,-0.001,104.0,108.0,102.0,13.3,1505.3,325.6,-0.7,1.8,2470.519,13.32,0.048,264.1
2021-01-26T04:40:03,42.805,6.029,-0.034,-0.012,0.014,104.0,108.0,101.0,13.4,1505.3,324.1,-0.7,1.8,2470.528,13.33,0.036,250.6
2021-01-26T04:43:03,42.805,6.029,-0.067,0.014,-0.006,105.0,111.0,102.0,13.4,1505.3,326.3,-0.7,1.8,2470.555,13.33,0.068,281.8
2021-01-26T04:46:03,42.805,6.029,-0.052,0.02,0.017,103.0,109.0,102.0,13.4,1505.3,325.3,-0.7,1.8,2470.571,13.32,0.055,291.0
2021-01-26T04:49:03,42.805,6.029,-0.058,0.012,-0.024,105.0,108.0,101.0,13.4,1505.3,325.9,-0.7,1.8,2470.537,13.32,0.059,281.7
2021-01-26T04:52:03,42.805,6.029,-0.087,0.019,-0.012,104.0,108.0,102.0,13.3,1505.3,326.4,-0.7,1.8,2470.54,13.32,0.089,282.3
2021-01-26T04:55:03,42.805,6.029,-0.061,0.011,-0.006,105.0,108.0,101.0,13.4,1505.3,326.1,-0.8,1.8,2470.52,13.33,0.061,280.2
2021-01-26T04:58:03,42.805,6.029,-0.071,0.008,-0.002,103.0,109.0,103.0,13.3,1505.3,326.0,-0.7,1.9,2470.584,13.33,0.071,276.4
2021-01-26T05:04:03,42.805,6.029,-0.058,0.023,0.024,104.0,107.0,102.0,13.4,1505.3,326.3,-0.7,1.8,2470.573,13.31,0.062,291.6
2021-01-26T05:07:03,42.805,6.029,-0.093,0.0,-0.03,103.0,109.0,102.0,13.4,1505.3,326.3,-0.8,1.8,2470.538,13.31,0.093,270.0
2021-01-26T05:10:03,42.805,6.029,-0.049,0.003,0.016,104.0,108.0,101.0,13.3,1505.3,326.6,-0.7,1.9,2470.566,13.32,0.049,273.5
2021-01-26T05:13:03,42.805,6.029,-0.085,0.019,-0.005,104.0,108.0,101.0,13.3,1505.3,326.5,-0.7,1.8,2470.596,13.32,0.087,282.6
2021-01-26T05:16:03,42.805,6.029,-0.082,0.013,-0.043,104.0,109.0,102.0,13.4,1505.3,323.2,-0.7,1.8,2470.582,13.32,0.083,279.0
2021-01-26T05:19:03,42.805,6.029,-0.052,0.005,-0.001,104.0,107.0,101.0,13.4,1505.3,325.8,-0.7,1.8,2470.556,13.32,0.052,275.5
2021-01-26T05:22:03,42.805,6.029,-0.064,0.008,0.004,106.0,109.0,100.0,13.4,1505.3,324.2,-0.7,1.8,2470.599,13.32,0.064,277.1
2021-01-26T05:25:03,42.805,6.029,-0.095,0.011,-0.022,104.0,109.0,100.0,13.3,1505.3,327.3,-0.7,1.8,2470.577,13.32,0.095,276.6
2021-01-26T05:28:03,42.805,6.029,-0.078,0.011,0.0,104.0,109.0,102.0,13.4,1505.3,324.7,-0.7,1.8,2470.581,13.32,0.078,278.0
2021-01-26T05:31:03,42.805,6.029,-0.016,0.011,0.026,104.0,108.0,102.0,13.4,1505.3,325.5,-0.7,1.8,2470.589,13.32,0.019,304.5
2021-01-26T05:34:03,42.805,6.029,-0.069,0.008,-0.022,104.0,108.0,101.0,13.4,1505.3,324.5,-0.7,1.8,2470.578,13.32,0.069,276.6
2021-01-26T05:37:03,42.805,6.029,-0.053,0.018,0.0,103.0,109.0,102.0,13.4,1505.3,328.1,-0.6,1.8,2470.544,13.32,0.055,288.8
2021-01-26T05:40:03,42.805,6.029,-0.052,0.01,0.015,104.0,107.0,102.0,13.4,1505.3,326.4,-0.7,1.8,2470.594,13.33,0.052,280.9
2021-01-26T05:43:03,42.805,6.029,-0.047,0.01,0.002,104.0,108.0,101.0,13.4,1505.3,325.1,-0.7,1.8,2470.59,13.32,0.048,282.0
2021-01-26T05:46:03,42.805,6.029,-0.052,0.008,-0.002,103.0,109.0,100.0,13.3,1505.3,327.9,-0.7,1.8,2470.533,13.32,0.052,278.7
2021-01-26T05:49:03,42.805,6.029,-0.065,0.02,-0.004,104.0,108.0,102.0,13.3,1505.3,323.5,-0.7,1.8,2470.572,13.32,0.068,287.1
2021-01-26T05:52:03,42.805,6.029,-0.08,-0.001,-0.006,104.0,107.0,101.0,13.4,1505.3,324.7,-0.7,1.8,2470.545,13.32,0.08,269.3
2021-01-26T05:55:03,42.805,6.029,-0.047,0.009,0.015,104.0,108.0,101.0,13.4,1505.3,328.0,-0.7,1.8,2470.553,13.32,0.047,280.8
2021-01-26T05:58:03,42.805,6.029,-0.059,-0.015,-0.002,104.0,109.0,102.0,13.4,1505.3,323.7,-0.7,1.8,2470.554,13.32,0.06,255.7
2021-01-26T06:04:03,42.805,6.029,-0.072,0.007,0.042,104.0,107.0,102.0,13.4,1505.3,328.0,-0.7,1.8,2470.598,13.31,0.072,275.5
2021-01-26T06:07:03,42.805,6.029,-0.077,0.011,0.007,105.0,107.0,102.0,13.4,1505.3,324.5,-0.7,1.8,2470.57,13.31,0.077,278.1
2021-01-26T06:10:03,42.805,6.029,-0.079,0.011,-0.033,104.0,107.0,105.0,13.4,1505.3,327.8,-0.7,1.8,2470.588,13.32,0.079,277.9
2021-01-26T06:13:03,42.805,6.029,-0.082,0.002,-0.022,105.0,108.0,102.0,13.4,1505.3,323.5,-0.7,1.8,2470.6,13.32,0.082,271.4
2021-01-26T06:16:03,42.805,6.029,-0.058,-0.002,-0.009,103.0,108.0,101.0,13.4,1505.3,326.5,-0.7,1.8,2470.585,13.32,0.058,268.0
2021-01-26T06:19:03,42.805,6.029,-0.046,0.022,0.04,103.0,107.0,101.0,13.4,1505.3,326.6,-0.7,1.8,2470.58,13.32,0.05,295.6
2021-01-26T06:25:03,42.805,6.029,-0.058,0.006,0.0,105.0,109.0,100.0,13.4,1505.2,328.1,-0.7,1.9,2470.606,13.3,0.058,275.9
2021-01-26T06:28:03,42.805,6.029,-0.072,0.006,-0.004,104.0,108.0,102.0,13.4,1505.3,323.1,-0.7,1.9,2470.627,13.31,0.072,274.8
2021-01-26T06:31:03,42.805,6.029,-0.073,0.006,-0.016,104.0,107.0,102.0,13.4,1505.3,325.6,-0.7,1.8,2470.598,13.32,0.073,274.7
2021-01-26T06:34:03,42.805,6.029,-0.049,0.001,-0.015,105.0,108.0,102.0,13.4,1505.3,324.8,-0.7,1.8,2470.593,13.32,0.049,271.2
2021-01-26T06:37:03,42.805,6.029,-0.076,0.006,-0.004,103.0,107.0,102.0,13.3,1505.3,325.0,-0.7,1.8,2470.614,13.32,0.076,274.5
2021-01-26T06:40:03,42.805,6.029,-0.086,0.0,-0.009,104.0,106.0,102.0,13.3,1505.3,324.9,-0.7,1.8,2470.576,13.32,0.085,270.0
2021-01-26T06:43:03,42.805,6.029,-0.067,0.002,0.011,104.0,106.0,103.0,13.4,1505.3,327.5,-0.7,1.8,2470.588,13.32,0.067,271.7
2021-01-26T06:46:03,42.805,6.029,-0.052,-0.006,0.001,104.0,107.0,101.0,13.4,1505.3,322.4,-0.7,1.8,2470.586,13.32,0.052,263.4
2021-01-26T06:49:03,42.805,6.029,-0.055,0.0,0.013,103.0,105.0,102.0,13.3,1505.3,323.5,-0.8,1.8,2470.579,13.32,0.055,270.0
2021-01-26T06:52:03,42.805,6.029,-0.06,0.011,0.025,104.0,108.0,101.0,13.4,1505.3,326.0,-0.7,1.8,2470.635,13.32,0.06,280.4
2021-01-26T06:55:03,42.805,6.029,-0.075,0.002,-0.026,104.0,105.0,102.0,13.4,1505.3,325.0,-0.7,1.8,2470.621,13.32,0.075,271.5
2021-01-26T06:58:03,42.805,6.029,-0.068,-0.001,-0.009,104.0,107.0,101.0,13.4,1505.3,324.2,-0.7,1.8,2470.567,13.32,0.068,269.2
2021-01-26T07:04:03,42.805,6.029,-0.045,0.018,0.028,102.0,107.0,101.0,13.4,1505.2,327.1,-0.7,1.8,2470.595,13.3,0.048,291.8
2021-01-26T07:07:03,42.805,6.029,-0.035,-0.007,-0.018,103.0,107.0,102.0,13.4,1505.3,324.1,-0.7,1.8,2470.615,13.31,0.035,258.7
2021-01-26T07:10:03,42.805,6.029,-0.04,-0.002,0.031,103.0,106.0,101.0,13.4,1505.3,324.8,-0.7,1.8,2470.567,13.32,0.04,267.1
2021-01-26T07:13:03,42.805,6.029,-0.056,0.01,0.009,103.0,108.0,101.0,13.4,1505.3,325.5,-0.7,1.8,2470.618,13.32,0.056,280.1
2021-01-26T07:16:03,42.805,6.029,-0.056,0.0,-0.021,104.0,108.0,101.0,13.3,1505.3,325.1,-0.7,1.8,2470.576,13.32,0.056,270.0
2021-01-26T07:19:03,42.805,6.029,-0.058,0.003,-0.012,103.0,108.0,101.0,13.3,1505.3,326.8,-0.7,1.8,2470.564,13.32,0.058,273.0
2021-01-26T07:22:03,42.805,6.029,-0.057,0.011,-0.005,104.0,107.0,102.0,13.3,1505.3,325.5,-0.7,1.8,2470.584,13.32,0.058,280.9
2021-01-26T07:25:03,42.805,6.029,-0.06,0.004,-0.002,103.0,106.0,102.0,13.3,1505.3,326.8,-0.7,1.8,2470.562,13.32,0.06,273.8
2021-01-26T07:28:03,42.805,6.029,-0.08,0.017,0.004,103.0,107.0,101.0,13.4,1505.3,326.2,-0.7,1.8,2470.575,13.32,0.081,282.0
2021-01-26T07:31:03,42.805,6.029,-0.057,-0.002,-0.004,103.0,107.0,101.0,13.3,1505.3,324.0,-0.7,1.8,2470.582,13.32,0.057,268.0
2021-01-26T07:34:03,42.805,6.029,-0.078,0.0,-0.01,105.0,106.0,100.0,13.3,1505.3,324.9,-0.7,1.9,2470.554,13.32,0.077,270.0
2021-01-26T07:37:03,42.805,6.029,-0.067,-0.004,-0.001,103.0,107.0,100.0,13.4,1505.3,324.6,-0.7,1.9,2470.535,13.32,0.067,266.6
2021-01-26T07:40:03,42.805,6.029,-0.06,0.02,0.01,104.0,107.0,102.0,13.4,1505.3,327.2,-0.7,1.8,2470.521,13.32,0.063,288.4
2021-01-26T07:43:03,42.805,6.029,-0.076,0.012,0.011,102.0,106.0,102.0,13.4,1505.3,324.4,-0.7,1.8,2470.56,13.32,0.076,279.0
2021-01-26T07:46:03,42.805,6.029,-0.074,0.022,-0.027,104.0,108.0,101.0,13.3,1505.3,325.4,-0.7,1.8,2470.574,13.32,0.077,286.6
2021-01-26T07:49:03,42.805,6.029,-0.083,-0.003,-0.002,103.0,106.0,102.0,13.4,1505.3,326.6,-0.7,1.9,2470.559,13.32,0.083,267.9
2021-01-26T07:52:03,42.805,6.029,-0.056,0.002,-0.011,104.0,108.0,100.0,13.4,1505.3,323.0,-0.7,1.8,2470.569,13.32,0.056,272.0
2021-01-26T07:55:03,42.805,6.029,-0.066,-0.016,-0.004,103.0,108.0,102.0,13.3,1505.3,324.6,-0.7,1.8,2470.592,13.32,0.067,256.4
2021-01-26T07:58:03,42.805,6.029,-0.052,-0.01,0.028,105.0,107.0,101.0,13.4,1505.3,323.7,-0.7,1.8,2470.543,13.32,0.052,259.1
2021-01-26T08:04:03,42.805,6.029,-0.077,0.011,-0.014,103.0,106.0,102.0,13.4,1505.2,325.2,-0.8,1.8,2470.596,13.3,0.077,278.1
2021-01-26T08:07:03,42.805,6.029,-0.046,-0.006,0.018,104.0,107.0,101.0,13.4,1505.3,323.1,-0.7,1.8,2470.597,13.31,0.046,262.6
2021-01-26T08:10:03,42.805,6.029,-0.056,-0.01,0.036,104.0,106.0,102.0,13.4,1505.3,323.7,-0.7,1.8,2470.576,13.32,0.056,259.9
2021-01-26T08:13:03,42.805,6.029,-0.079,0.011,-0.03,103.0,108.0,101.0,13.3,1505.3,327.0,-0.7,1.8,2470.537,13.32,0.079,277.9
2021-01-26T08:16:03,42.805,6.029,-0.06,-0.016,0.014,103.0,107.0,101.0,13.3,1505.3,323.4,-0.7,1.8,2470.569,13.32,0.062,255.1
2021-01-26T08:19:03,42.805,6.029,-0.071,0.02,-0.005,103.0,106.0,101.0,13.4,1505.3,324.0,-0.7,1.8,2470.567,13.32,0.073,285.7
2021-01-26T08:22:03,42.805,6.029,-0.052,0.017,0.013,103.0,109.0,102.0,13.4,1505.3,327.4,-0.7,1.8,2470.549,13.32,0.054,288.1
2021-01-26T08:25:03,42.805,6.029,-0.068,0.007,-0.012,104.0,107.0,102.0,13.3,1505.3,326.7,-0.7,1.8,2470.581,13.32,0.068,275.9
2021-01-26T08:28:03,42.805,6.029,-0.049,0.015,0.006,104.0,107.0,101.0,13.4,1505.3,327.5,-0.7,1.8,2470.558,13.32,0.051,287.0
2021-01-26T08:31:03,42.805,6.029,-0.069,0.007,0.0,105.0,106.0,102.0,13.3,1505.3,327.4,-0.7,1.8,2470.531,13.32,0.069,275.8
2021-01-26T08:34:03,42.805,6.029,-0.047,0.025,0.016,105.0,109.0,101.0,13.4,1505.3,324.8,-0.7,1.8,2470.546,13.32,0.053,298.0
2021-01-26T08:37:03,42.805,6.029,-0.055,0.009,-0.027,104.0,108.0,102.0,13.4,1505.3,325.5,-0.7,1.8,2470.569,13.32,0.055,279.3
2021-01-26T08:43:03,42.805,6.029,-0.07,0.01,-0.014,105.0,107.0,102.0,13.4,1505.2,326.4,-0.7,1.8,2470.586,13.3,0.07,278.1
2021-01-26T08:46:03,42.805,6.029,-0.07,0.022,0.021,105.0,107.0,102.0,13.3,1505.3,324.8,-0.6,1.8,2470.552,13.31,0.073,287.4
2021-01-26T08:49:03,42.805,6.029,-0.066,0.009,0.02,105.0,109.0,102.0,13.3,1505.3,327.4,-0.7,1.8,2470.614,13.31,0.066,277.8
2021-01-26T08:52:03,42.805,6.029,-0.087,0.009,-0.027,104.0,107.0,102.0,13.4,1505.3,325.2,-0.7,1.8,2470.584,13.32,0.087,275.9
2021-01-26T08:55:03,42.805,6.029,-0.055,0.007,-0.029,105.0,109.0,101.0,13.3,1505.3,326.5,-0.7,1.8,2470.511,13.32,0.055,277.3
2021-01-26T08:58:03,42.805,6.029,-0.066,0.015,0.019,105.0,106.0,102.0,13.4,1505.3,326.5,-0.7,1.8,2470.585,13.32,0.067,282.8
2021-01-26T09:04:03,42.805,6.029,-0.085,0.001,-0.028,104.0,108.0,102.0,13.4,1505.2,326.3,-0.7,1.8,2470.578,13.3,0.085,270.7
2021-01-26T09:07:03,42.805,6.029,-0.089,-0.007,0.017,105.0,108.0,103.0,13.4,1505.3,326.3,-0.7,1.8,2470.557,13.31,0.089,265.5
2021-01-26T09:10:03,42.805,6.029,-0.048,0.018,0.02,105.0,110.0,102.0,13.4,1505.3,325.5,-0.7,1.8,2470.566,13.31,0.051,290.6
2021-01-26T09:13:03,42.805,6.029,-0.087,0.008,-0.032,106.0,108.0,101.0,13.4,1505.3,326.6,-0.7,1.8,2470.553,13.32,0.087,275.3
2021-01-26T09:16:03,42.805,6.029,-0.054,0.009,0.003,106.0,108.0,101.0,13.3,1505.3,325.8,-0.7,1.8,2470.56,13.32,0.054,279.5
2021-01-26T09:19:03,42.805,6.029,-0.058,0.002,-0.003,105.0,108.0,103.0,13.4,1505.3,325.4,-0.7,1.9,2470.539,13.32,0.058,272.0
2021-01-26T09:22:03,42.805,6.029,-0.061,-0.015,-0.007,105.0,107.0,103.0,13.4,1505.3,323.4,-0.7,1.8,2470.543,13.32,0.062,256.2
2021-01-26T09:25:03,42.805,6.029,-0.055,-0.002,-0.001,105.0,108.0,102.0,13.3,1505.3,326.2,-0.7,1.8,2470.556,13.32,0.055,267.9
2021-01-26T09:28:03,42.805,6.029,-0.071,0.026,-0.025,106.0,108.0,103.0,13.4,1505.3,327.9,-0.7,1.8,2470.529,13.32,0.075,290.1
2021-01-26T09:31:03,42.805,6.029,-0.076,0.014,-0.002,105.0,108.0,102.0,13.4,1505.3,323.5,-0.7,1.8,2470.53,13.32,0.077,280.4
2021-01-26T09:34:03,42.805,6.029,-0.064,0.024,-0.002,105.0,109.0,102.0,13.4,1505.3,325.4,-0.7,1.8,2470.521,13.32,0.068,290.6
2021-01-26T09:37:03,42.805,6.029,-0.058,0.006,-0.01,106.0,110.0,102.0,13.4,1505.3,323.2,-0.7,1.8,2470.537,13.32,0.058,275.9
2021-01-26T09:40:03,42.805,6.029,-0.061,0.018,-0.004,106.0,110.0,102.0,13.4,1505.3,326.0,-0.7,1.8,2470.523,13.32,0.063,286.4
2021-01-26T09:43:03,42.805,6.029,-0.045,-0.002,0.008,106.0,108.0,103.0,13.4,1505.3,324.8,-0.7,1.9,2470.545,13.32,0.045,267.5
2021-01-26T09:46:03,42.805,6.029,-0.042,0.006,-0.011,105.0,109.0,102.0,13.3,1505.3,326.4,-0.7,1.9,2470.555,13.32,0.042,278.1
2021-01-26T09:49:03,42.805,6.029,-0.063,0.014,-0.029,106.0,107.0,102.0,13.4,1505.3,326.3,-0.7,1.8,2470.521,13.32,0.064,282.5
2021-01-26T09:52:03,42.805,6.029,-0.07,0.021,-0.011,105.0,108.0,102.0,13.4,1505.3,327.2,-0.7,1.8,2470.521,13.32,0.073,286.7
2021-01-26T09:55:03,42.805,6.029,-0.077,0.013,-0.027,103.0,109.0,102.0,13.4,1505.3,324.9,-0.7,1.8,2470.546,13.32,0.078,279.6
2021-01-26T09:58:03,42.805,6.029,-0.061,0.007,-0.022,105.0,109.0,102.0,13.4,1505.3,322.8,-0.7,1.8,2470.511,13.32,0.061,276.5
2021-01-26T10:04:03,42.805,6.029,-0.065,0.017,0.006,105.0,110.0,103.0,13.4,1505.2,326.7,-0.7,1.9,2470.528,13.3,0.067,284.7